Timeline UpdatesTrip UpdatesNews PostsPvt Posts♥♥Travel TipsAdmin PostsConv PostsFollowed PostsChat RequestsBlog PostsPNR Posts

Disclaimer
Search
 
 
Sat Nov 29, 2014 05:38:21 ISTHomeTrainsΣChainsAtlasPNRForumGalleryNewsFAQTripsMembersLoginFeedback
No Recent News for this Train
Other Trains in the News **new
Latest...
.
Wed Jul 25, 2012 (05:18PM)
⇐ Return Journey: Train# 57274

57273/Hubli - Tirupati Passenger

Time-Table HAS CHANGED.
Oct 16 2014 (10:49PM)
Change Departure Station:
Change Arrival Station:
Post a Train Travel TipPost a Train Travel Tip **new
Post a Comment/Question/Picture/VideoPost a Comment/Question/Picture/Video
Pantry/Catering
✕ NO Pantry Car
✕ NO Catering
RSA - Rake Sharing
57257/58 TPTY-COA Passenger
Rake/Coach Composition
LOCO-SLR-GS-GS-GS-GS-GS-GS-GS-S2-S1-GS-GS-GS-GS-GS-SLR
Loco
UBL - GTL --> GTL WDM 2B GTL-TPTY --> WAP/WAM
News    PNR    Forum    Time-Table    Availability    Fare Chart    Map    Arr/Dep History    Trips    Gallery    ΣChains    X/O    Timeline    
Travel Time: 9h 5m    39 halts    Distance: 319 km    Avg Speed: 35 km/hr
Type: Passenger
Zone: SCR/South Central
Departs @ 12:40 (Avg 24m late)
Platform# ???
SMTWTFS
Guntakal Junction/GTL 
Arrives @ 21:45 (Avg 13m late)
Platform# 5
SMTWTFS
Tirupati Main/TPTY 

39 halts. 42 intermediate Stations between Guntakal Junction and Tirupati Main

Show ALL intermediate Stations  Show Old Time-Table

#TrkCodeStation NameX/OArrivesAvgDepartsAvgHaltPFDay#KmSpeedElevZoneAddress
1|==|UBLHubli Junction (5)  -06:00+121-257.851640mSWRHubli - 580020, Karnataka
2|--|SVHESisvinhalli  06:27-06:28-1m--1-235.0121594mSWRState Highway 28, Karnataka
3|--|NGRAnnigeri (2)  06:34+1406:35+151m--1-222.971634mSWRDist. Dharwad, Karnataka
4|--|LKTHulkoti  06:44+2006:45+201m--1-212.329654mSWRNational Highway 63, Karnataka
5|--|GDGGadag Junction (3)X  07:13 07:10+1407:15+152 5m--1-200.042655mSWRGadag GDG jn pnts. UBL/BAY/SUR, Karnataka
6|--|BNPBhanapur  08:05 08:19+608:10 08:20+145 1m--1-155.183561mSWRNational Highway 63, Karnataka
7|--|KBLKoppal (1)  08:23 08:29+1908:25 08:30+212 1m11-142.674528mSWRKoppal, Karnataka
8|--|GINGinigera  08:38 08:39+2608:40+262 1m--1-131.546511mSWRGinigera, Karnataka
9|--|MRBMunirabad (1)  08:53 08:54+2908:55+292 1m11-120.820470mSWRMunirabad, Karnataka
10%=-|HPTHospet Junction (3)  09:13+2509:15+272m11-114.750472mSWRHospet, Karnataka
11%==%TNGLToranagallu (3)  09:54+2409:55+251m--1-82.538473mSWRToranagallu, Karnataka
12%==%DAJDurojiX  10:00 10:04+2310:05+235 1m--1-76.827467mSWRBellary, Karnataka
13%==%BAYBallari Junction (4)  11:05+411:10+75m31-50.047458mSWRBellary-583101, Karnataka
14%==%HDDHaddinagundu  11:18+911:19+91m--1-43.750433mSCRNational Highway 63, Karnataka
15%==%HGIHagari  11:27+911:28+91m--1-37.165413mSCRNational Highway 63, Karnataka
16%==%VPVirapur  11:37+1111:38+111m--1-27.350438mSCRAnantapur, Andhra Pradesh
17%==%TKBNTsakibanda  11:44-11:45-1m--1-22.357431mSCRRayalaseema Region, Andhra Pradesh
18%==%BNLBevinahalu  11:49+1311:50+131m--1-18.558428mSCRRayalaseema Region, Andhra Pradesh
19%==%BLLBantanahalX  11:57+1711:58+171m--1-11.826445mSCRRayalaseema Region, Andhra Pradesh
20|-=%GTLGuntakal Junction (6)»12:25+1912:40+2415m--10.028453mSCRGuntakal. Tel: 08552-227131/32, Andhra Pradesh
21/==/TIMTimmanacherlaX  12:47+3212:48+331m--13.277434mSCRGuntakal, Andhra Pradesh
22/==/NKDONakkanadoddi  12:55+3712:56+371m--112.258391mSCRRayalaseema Region, Andhra Pradesh
23|--|PLUPatakottacheruvu  13:01+3813:02+381m--117.058381mSCRRayalaseema Region, Andhra Pradesh
24/==/GYGooty Junction (2)X  13:14+4413:15+511m--128.565370mSCRNH 7 Anantapur District, Andhra Pradesh
25/==/JKOJakkalacheruvuX  13:26+5813:27+581m--140.478334mSCRRayalaseema Region, Andhra Pradesh
26/==/RLORayala Cheruvu (2)  13:36+1:0013:37+1:001m--152.138292mSCRRayalacheruvu, Andhra Pradesh
27/==/VMLVemulapadu  13:46+5813:47+581m--157.954269mSCRSH 57, Andhra Pradesh
28/==/JURJutturuX  13:54+1:0013:55+1:011m--164.254260mSCRTadipatri, Andhra Pradesh
29/==/KMQAKomali  14:02+1:0514:03+1:051m--170.534246mSCRPappuru Rd, Andhra Pradesh
30/==/TUTadipatri (3)14:14+5514:15+561m--176.668243mSCRAnantapuram Dist, Andhra Pradesh
31/==/CLPEChallavaripalli  14:21+1:0314:22+1:031m--183.552229mSCRYallanur Rd, Andhra Pradesh
32/==/VRNVanganur  14:29+1:0414:30+1:041m--189.571222mSCRRayalaseema Region, Andhra Pradesh
33/==/RLLRegadipalli  14:36+1:0714:37+1:071m--196.618223mSCRKadapa (YSR District), Andhra Pradesh
34/==/KDPKondapuram (2)X  15:04+5015:05+581m--1104.761214mSCRKadapa (YSR District), Andhra Pradesh
35/==/MUMMangapatnam  15:14+5515:15+551m--1113.862218mSCRKadapa (YSR District), Andhra Pradesh
36/==/MOOMuddanuru (3)  15:29+1:0115:30+1:011m--1128.357194mSCRKadapa (YSR District), Andhra Pradesh
37/==/KMHKalamalla  15:39+1:0215:40+1:021m--1136.965178mSCRKadapa (YSR District), Andhra Pradesh
38/==/YAYerraguntla (2)X  15:47+1:0315:48+1:041m--1144.557171mSCRKadapa / Cuddapah (YSR District), Andhra Pradesh
39/==/YGDYerragudipad  15:57+1:0515:58+1:051m--1153.038149mSCRKadapa (YSR District), Andhra Pradesh
40/==/KKMKamalapuram (2)  16:09+1:0316:10+1:041m--1160.070141mSCRKadapa (YSR District), Andhra Pradesh
41/==/GPYGangayapalle  16:16+1:0716:17+1:071m--1166.970137mSCRKadapa (YSR District), Andhra Pradesh
42/==/KPUKrishnapuramX  16:25+1:0816:26+1:081m--1176.212133mSCRKadapa (YSR District), Andhra Pradesh
43/==/HXKadapa (3)X  17:04+3317:05+371m11183.660146mSCRCuddapah, Andhra Pradesh
44/==/KNLPKanamalo Palle  17:16+4617:17+471m--1194.648188mSCRKadapa (YSR District), Andhra Pradesh
45/==/BKPTBhakarapet  17:24+4717:25+471m--1200.249145mSCRKadapa (YSR District), Andhra Pradesh
46/==/VNMOntimitta (2)  17:32+4817:33+481m--1205.972134mSCRKadapa (YSR District), Andhra Pradesh
47/==/MMPLMantapampalle (1)  17:42+5117:43+511m11216.828154mSCRKadapa (YSR District), Andhra Pradesh
48/==/NRENandalurX  17:59+4518:00+481m--1224.136143mSCRRayalaseema Region, Andhra Pradesh
49/==/HAQHastavaram  18:09+4618:10+481m--1229.638143mSCRKadapa (YSR District), Andhra Pradesh
50/==/RJPRazampeta (2)  18:18+4718:19+471m--1234.761144mSCRKadapa (YSR District), Andhra Pradesh
51/==/PMTPullampet  18:28+5118:29+511m--1243.846159mSCRKadapa (YSR District), Andhra Pradesh
52/==/RPLReddipalle  18:34-18:35-1m--1247.663175mSCRDr. Y.S. Rajasekhar Reddy, Andhra Pradesh
53/==/OBVPObulavaripalli (2)  18:42+5218:43+531m--1255.059191mSCRRayalaseema Region, Andhra Pradesh
54/==/ANEAnantarajupet  18:49+5518:50+551m--1260.963197mSCRRayalaseema Region, Andhra Pradesh
55/==/KOUKoduru (2)X  18:57+5518:58+581m--1268.262215mSCRKadapa (YSR District), Andhra Pradesh
56/==/SFSettigunta  19:07+1:0219:08+1:031m--1277.539214mSCRCoastal Andhra Region, Andhra Pradesh
57/==/BLPEBalapalleX  19:19+1:0219:20+1:051m--1284.774246mSCRGangurajupodu, Andhra Pradesh
58/==/MRMMamanduruX  19:28+1:0919:29+1:141m--1294.613177mSCRChittoor, Andhra Pradesh
59/==/RURenigunta Junction (5)XO  20:15 20:35+2920:20 21:30+95 55m--1309.140113mSCRChittoor District, Andhra Pradesh
60/==/TPTYTirupati Main (5)•  21:00 21:45+13-51319.0-150mSCRChittoor Distt, Andhra Pradesh
Scroll to Top
Scroll to Bottom


Go to Mobile site